Regional Weather Roundup
Issued by NWS

Home | Current Version | Previous Version | Text Only | Print | Product List | Glossary Off
Versions: 1 2 3 4 5 6 7 8 9 10 11 12 13 14 15 16 17 18 19 20 21 22 23 24 25 26 27 28 29 30 31 32 33 34 35 36 37 38 39 40 41 42 43 44 45 46 47 48 49 50

000
ASUS43 KIND 070659
RWRIN

WEATHER ROUNDUP FOR INDIANA
NATIONAL WEATHER SERVICE INDIANAPOLIS IN
200 AM EST SUN FEB 07 2016

NOTE: "FAIR" INDICATES FEW OR NO CLOUDS BELOW 12,000 FEET WITH NO
SIGNIFICANT WEATHER AND/OR OBSTRUCTIONS TO VISIBILITY.

* - STATION DOES NOT REPORT WEATHER SUCH AS PRECIPITATION OR FOG.

+ - STATION NOT QUALITY CONTROLLED BY THE NATIONAL WEATHER SERVICE.
    USE DATA WITH CAUTION...ESPECIALLY DEWPOINT AND RELATIVE
    HUMIDITY OBSERVATIONS.

INZ001>003-010>013-019-020-070800-
NORTHWEST INDIANA

CITY           SKY/WX    TMP DP  RH WIND       PRES   REMARKS

$$

LMZ046-743>745-070800-
SOUTHERN LAKE MICHIGAN

STATION/POSITION TIME  TEMP    WIND        PRES    WAVE
                       AIR SEA DIR/SP/G            HT
                 (UTC) (F)     (DEG/KT/KT) (MB)    (FT)
MICHIGAN CITY    0600   37     160/ 16/ 18   N/A

$$

INZ004-005-014>016-021>024-070800-
NORTH CENTRAL INDIANA

CITY           SKY/WX    TMP DP  RH WIND       PRES   REMARKS
GOSHEN         CLEAR     34  26  72 S10       30.06F WCI  26
SOUTH BEND     PTCLDY    34  27  75 SW8       30.06F WCI  27

$$

INZ006>009-017-018-025>027-070800-
NORTHEAST INDIANA

CITY           SKY/WX    TMP DP  RH WIND       PRES   REMARKS
FORT WAYNE     PTCLDY    31  25  78 SW10      30.10F WCI  22

$$

INZ028-029-035-036-043>045-051>053-070800-
WEST CENTRAL INDIANA

CITY           SKY/WX    TMP DP  RH WIND       PRES   REMARKS
GREENCASTLE +  CLEAR     37  18  44 SW7       30.13F
LAFAYETTE      CLEAR     32  25  75 CALM      30.10F
TERRE HAUTE    CLEAR     39  23  52 SW10      30.14F

$$

INZ030>032-037>040-046>048-054>057-064-065-070800-
CENTRAL INDIANA

CITY           SKY/WX    TMP DP  RH WIND       PRES   REMARKS
GREENWOOD *+   CLEAR     36  28  75 S7        30.15F
INDIANAPOLIS   CLEAR     33  24  69 S9        30.12F WCI  25
-EAGLE CREEK   CLEAR     33  24  69 S3        30.13F
KOKOMO *+        N/A     34  25  69 S10       30.10F WCI  26
MT COMFORT *+  CLEAR     34  25  69 S8        30.14F WCI  27
SHELBYVILLE    CLEAR     36  25  64 S10       30.15F

$$

INZ033-034-041-042-049-050-058-059-070800-
EAST CENTRAL INDIANA

CITY           SKY/WX    TMP DP  RH WIND       PRES   REMARKS
MUNCIE         CLEAR     36  25  64 S8        30.12F

$$

INZ060-061-067>069-081>083-085>088-070800-
SOUTHWEST INDIANA

CITY           SKY/WX    TMP DP  RH WIND       PRES   REMARKS
EVANSVILLE     CLEAR     37  23  56 SW6       30.22F
HUNTINGBURG *+ CLEAR     37  21  52 SW7       30.21F

$$

INZ062-063-066-070>080-084-089>092-070800-
SOUTH CENTRAL AND SOUTHEAST INDIANA

CITY           SKY/WX    TMP DP  RH WIND       PRES   REMARKS
BLOOMINGTON    CLEAR     38  24  57 SW7       30.16F
MADISON *+     CLEAR     32  27  80 S3        30.21F
SEYMOUR +      CLEAR     30  25  80 CALM      30.19F

$$




USA.gov is the U.S. government's official web portal to all federal, state and local government web resources and services.